Home > Weather > Stillwater > Past weeks

Flag for U.S.A. Weather for the Past 2 Weeks in Stillwater, Minnesota, U.S.A.

Now
34 °F

Mostly cloudy.


Feels Like: 31 °F
Forecast: 22 / 35 °F
Wind: 3 mph from South

Location: St. Paul Downtown Holman Field

Current Time: Feb 6, 2016 at 10:59:58 PM

Latest Report: Feb 6, 2016 at 9:53 PM


Visibility: 10 mi

Pressure: 29.83 "Hg

Humidity: 82%

Dew point: 29 °F

Location of StillwaterLocation

Historic Weather in Stillwater — Graph

°F

Stillwater Temperature Yesterday

Maximum temperature yesterday: 27 °F (at 3:53 PM)
Minimum temperature yesterday: 7 °F (at 3:53 AM)
Average temperature yesterday: 18 °F

High & Low Weather Summary for the Past Weeks

 TemperatureHumidityPressure
High41 °F (Jan 30, 1:53 PM)96% (Jan 24, 12:53 AM)30.41 "Hg (Jan 24, 12:53 AM)
Low7 °F (Feb 5, 3:53 AM)50% (Feb 3, 2:53 PM)29.52 "Hg (Jan 30, 3:53 PM)
Average26 °F81%29.94 "Hg
* Reported Jan 22 8:53 PM — Feb 6 8:53 PM, Stillwater, Weather by CustomWeather, © 2016

Note: Actual official high and low records may vary slightly from our data, if they occured in-between our weather recording intervals... More about our weather records

Advertising

Stillwater Weather History for the Previous 24 Hours

 ConditionsComfort  
Time TempWeatherWind HumidityBarometerVisibility
8:53 PM
Sat, Feb 6
34 °FLight rain. Overcast.12 mph79%29.85 "Hg10 mi
7:53 PM34 °FMostly cloudy.7 mph76%29.88 "Hg10 mi
6:53 PM34 °FOvercast.14 mph76%29.88 "Hg10 mi
5:53 PM34 °FOvercast.14 mph76%29.90 "Hg10 mi
4:53 PM34 °FMostly cloudy.15 mph76%29.93 "Hg10 mi
3:53 PM34 °FPartly sunny.13 mph76%29.96 "Hg10 mi
2:53 PM34 °FPartly sunny.14 mph76%29.98 "Hg10 mi
1:53 PM33 °FPassing clouds.16 mph78%30.01 "Hg10 mi
12:53 PM32 °FSunny.17 mph75%30.04 "Hg10 mi
11:53 AM30 °FSunny.17 mph82%30.09 "Hg9 mi
10:53 AM29 °FPassing clouds.10 mph82%30.13 "Hg9 mi
9:53 AM27 °FOvercast.13 mph89%30.13 "Hg8 mi
8:53 AM26 °FLow clouds.10 mph88%30.14 "Hg8 mi
7:53 AM26 °FOvercast.7 mph84%30.16 "Hg8 mi
6:53 AM26 °FOvercast.5 mph84%30.17 "Hg10 mi
5:53 AM25 °FOvercast.3 mph85%30.18 "Hg10 mi
4:53 AM25 °FOvercast.5 mph85%30.19 "Hg10 mi
3:53 AM25 °FOvercast.8 mph85%30.20 "Hg10 mi
2:53 AM26 °FOvercast.9 mph84%30.19 "Hg10 mi
1:53 AM26 °FOvercast.7 mph84%30.20 "Hg8 mi
12:53 AM26 °FOvercast.7 mph84%30.20 "Hg8 mi
11:53 PM
Fri, Feb 5
26 °FOvercast.8 mph81%30.21 "Hg8 mi
10:53 PM26 °FOvercast.6 mph81%30.23 "Hg8 mi
Weather by CustomWeather, © 2016

See weather overviewHow to use our weather pages